COSMOS 1275 DEB, 39964

Orbit data source: Space-Track

COSMOS 1275 DEB, 39964 is space debris in LEO originally from a launch on Thu, 04 Jun 1981 UTC launched from the Plesetsk Missile And Space Complex (PKMTR). Debris objects in space refer to the collection of defunct objects orbiting the Earth. Examples of debris include non-operational satellites, rocket bodies, and fragments generated from explosions, collisions, or faulty payload assembly.

Loading next visibility...
Identifier
39964, 1981-053PA
Orbit
LEO
Country
Flag of CISCIS
Related business
Manufacturer
Unknown
Mission
Spacecraft
Bus & Motor
Unknown
Mass
Unknown
Launch date (UTC)
1981-06-04 (44 years ago)
Launch vehicle
Unknown
Launch site
Plesetsk Missile And Space Complex (PKMTR)
Object type
Payload
Rocket body
Debris
Shape & HBR
Unknown shape, 0.1 m
Radar Cross Section
Small (<0.1 m²)

Expand to show TLE details & history
Last TLE update: 1 day ago

TLE from 1 day ago
0 COSMOS 1275 DEB
1 39964U 81053PA  25287.35922997  .00044653  00000-0  40853-2 0  9992
2 39964  83.0774  59.0449 0022285 280.2831 109.5971 14.94581543601054
Epoch: 2025-10-14T08:37Z
TLE epoch observation values (Epoch: 2025-10-14T08:37:17.469Z)
Latitude
29.93092°
Longitude
-89.44013°
Altitude
592.774 km
Speed
7.563 km/s
True Right ascension
04h 12m 07s
True Declination
29° 46' 44"
Sunlit
Object was in full shadow at epoch
Visualization orbit readout
Latitude
Unknown
Longitude
Unknown
Altitude
Unknown
Speed
Unknown
Apparent Right ascension
Unknown
Apparent Declination
Unknown
Sunlit
N/A
Visualization observer readout
Local Sidereal Time
12:59:12
Azimuth
Unknown
Elevation
Unknown
Doppler factor
Unknown
Orbital elements
Apogee altitude
596.16 km
Perigee altitude
565.144 km
Semi-major axis
6,958.789 km
Eccentricity
0.00223
Inclination
83.0774°
RAAN
59.0449°
Arg. of periapsis
280.2831°
True anomaly
109.83745°
Mean anomaly
109.5971°
Eccentric anomaly
109.7173°
Mean motion
3.73889 °/min
Orbital period
96.29 mins
BSTAR
0.0040853
Loading maneuver chart data...
Computing Atmospheric mass density...

Documentation

Showing up to 5 results
|